Regional Weather Roundup
Issued by NWS Cleveland, OH

Home | Current Version | Previous Version | Graphics & Text | Print | Product List | Glossary On
Versions: 1 2 3 4 5 6 7 8 9 10 11 12 13 14 15 16 17 18 19 20 21 22 23 24 25 26 27 28 29 30 31 32 33 34 35 36 37 38 39 40 41 42 43 44 45 46 47 48 49 50
000
ASUS41 KCLE 241002
RWRCLE
OHIO REGIONAL WEATHER ROUNDUP
NATIONAL WEATHER SERVICE CLEVELAND, OH
500 AM EST TUE JAN 24 2017

NOTE: "FAIR" INDICATES FEW OR NO CLOUDS BELOW 12,000 FEET WITH NO
SIGNIFICANT WEATHER AND/OR OBSTRUCTIONS TO VISIBILITY.

OHZ001>008-015>018-024>027-034-035-043-044-241100-
   NORTHWEST OHIO

CITY           SKY/WX    TMP DP  RH WIND       PRES   REMARKS
DEFIANCE       LGT RAIN  39  38  96 NW6       29.75R FOG
FINDLAY        CLOUDY    38  34  85 NW5       29.73R
TOLEDO EXPRESS CLOUDY    37  37 100 SW3       29.73R FOG
TOLEDO EXEC    CLOUDY    38  36  92 CALM      29.74R
LIMA           LGT RAIN  39  32  76 NW5       29.73R
$$

OHZ009>014-019>023-028>033-038-089-241100-
   NORTHEAST OHIO

CITY           SKY/WX    TMP DP  RH WIND       PRES   REMARKS
CLE-HOPKINS    LGT RAIN  36  33  89 NE8       29.69S
CLE-LAKEFRONT  CLOUDY    36  34  92 NE10      29.67S
CUY CO. ARPT   NOT AVBL
LORAIN-ELYRIA  LGT RAIN  34  32  92 NE8       29.68S WCI  27
ASHTABULA      CLOUDY    34  33  96 N7        29.65S WCI  28
AKRON-CANTON   CLOUDY    39  36  89 W5        29.64S FOG
WOOSTER        LGT RAIN  39  37  92 NW3       29.66R
MANSFIELD      MIX PCPN  36  35  96 NW8       29.66R
YOUNGSTOWN     LGT RAIN  38  36  92 W8        29.62S VSB 3/4
$$

OHZ042-051>053-060>062-070>072-077>081-241100-
  SOUTHWEST OHIO

CITY           SKY/WX    TMP DP  RH WIND       PRES   REMARKS
CINC-COVINGTON DRIZZLE   40  39  97 NW9       29.76R FOG
CINC-LUNKEN    CLOUDY    42  40  92 W9        29.78R
HAMILTON       CLOUDY    42  41  96 W8        29.77R
DAYTON         CLOUDY    40  39  97 NW15      29.73R FOG
WRIGHT-PAT AFB CLOUDY    42  42 100 NW9       29.72R
DAYTON GENERAL CLOUDY    41  40  96 W12       29.73R
WILMINGTON     CLOUDY    41  41 100 NW8       29.70S FOG
$$

OHZ036-037-039>041-045>050-054>059-063>069-073>076-082>088-241100-
  CENTRAL AND SOUTHEAST OHIO

CITY           SKY/WX    TMP DP  RH WIND       PRES   REMARKS
COLUMBUS       CLOUDY    41  41 100 NW10      29.69R
OSU AIRPORT    CLOUDY    39  38  96 NW10      29.70R
BOLTON FIELD   NOT AVBL
RICKENBACK AFB NOT AVBL
NEWARK         LGT RAIN  40  38  93 W3        29.67R
MARION         CLOUDY    37  36  96 NW9       29.71R
LANCASTER      CLOUDY    43  40  89 NW6       29.69R
ZANESVILLE     LGT RAIN  39  36  89 NW6       29.67R
NEW PHILLY     NOT AVBL
$$



USA.gov is the U.S. government's official web portal to all federal, state and local government web resources and services.